[[{"header":{"parameterUnit":"m.s-1","parameterCategory":1,"la1":30.2991,"la2":30.254,"lo1":-89.0895,"lo2":-89.0444,"dy":0.0017,"dx":0.0017,"nx":28,"ny":28,"refTime":"2024-06-23T21:00:00:Z","depth":0,"parameterNumber":2,"parameterNumberName":"U-component_of_WINDS"},"data":[0,0,0,0,0,0,0,0,0,0,0,0,0,0,0,0,0,0,0,0,0,0,0,0,0,0,0,0,0,0,0,0,0,0,0,0,0,0,0,0,0,0,0,0,0,0,0,0,0,0,0,0,0,0,0,0,0,0,0.4277,0.4278,0,0.4413,0.4415,0.4416,0.4479,0.4478,0.4478,0.4478,0.462,0.4623,0.4627,0,0,0,0,0,0,0,0,0,0,0,0,0,0.4072,0.4075,0.4277,0.4279,0.428,0.4413,0.4415,0.4417,0.4479,0.4478,0.4478,0.4478,0.4618,0.4623,0.4628,0,0,0,0,0,0,0,0,0,0,0,0,0,0.418,0.4076,0.4277,0.4327,0.4333,0.4412,0.4415,0.4417,0.4479,0.4478,0.4478,0.4478,0.4617,0.4623,0.4628,0.4668,0,0,0.4646,0.4649,0,0,0,0,0,0,0,0,0.4173,0.4187,0.4318,0.4324,0.433,0.4429,0.4394,0.4501,0.4479,0.4423,0.4478,0.4478,0.4556,0.4567,0.4593,0.4675,0.4681,0.4647,0.465,0.4653,0.4654,0,0,0,0,0,0,0,0.4166,0.4182,0.4331,0.432,0.4327,0.4343,0.4358,0.4415,0.4489,0.4428,0.4433,0.4448,0.456,0.4587,0.4597,0.4683,0.4647,0.4652,0.4655,0.4658,0.4804,0.4804,0,0,0,0,0,0,0.415,0.4175,0.4327,0.4335,0.425,0.4347,0.4364,0.4397,0.4489,0.4503,0.4448,0.4451,0.4578,0.459,0.4602,0.4655,0.4653,0.4658,0.4662,0.4804,0.4804,0.4804,0,0,0,0,0,0,0.4145,0.4163,0.4321,0.4256,0.4278,0.4351,0.4388,0.44,0.4428,0.4504,0.4518,0.4463,0.4578,0.4594,0.4651,0.4661,0.4661,0.4666,0.4803,0.4804,0.4804,0.476,0,0,0,0,0,0,0.4139,0.4161,0.4176,0.4256,0.4281,0.4367,0.4388,0.4403,0.4437,0.4442,0.4521,0.4534,0.4579,0.4642,0.4657,0.4669,0.4671,0.4803,0.4803,0.4804,0.4761,0.4759,0.4758,0,0,0,0,0,0.4131,0.4159,0.4177,0.4195,0.4302,0.4368,0.4382,0.4432,0.4438,0.4455,0.4503,0.4532,0.4657,0.4647,0.4665,0.4678,0.4802,0.4803,0.4804,0.4762,0.476,0.4758,0,0,0,0,0,0,0.408,0.4171,0.4191,0.4246,0.4298,0.4378,0.4401,0.4428,0.4481,0.4483,0.4543,0.4561,0.4612,0.4651,0.4639,0.4722,0.4732,0.4736,0.4694,0.4693,0.4691,0.4681,0.4676,0,0,0,0,0,0.4075,0.412,0.4197,0.4238,0.4263,0.4327,0.4357,0.4391,0.4449,0.4471,0.4525,0.4579,0.4631,0.4664,0.4716,0.4767,0.4785,0.4785,0.4783,0.4781,0.4784,0.4814,0.4815,0.4807,0.4807,0.4807,0,0,0.4065,0.412,0.4145,0.4229,0.4273,0.4319,0.4345,0.4393,0.4427,0.4479,0.4536,0.4576,0.4642,0.4696,0.4722,0.473,0.479,0.4782,0.478,0.4785,0.4815,0.4815,0.4816,0.4808,0.4808,0.4808,0,0,0.407,0.4116,0.4155,0.4199,0.4266,0.4308,0.4317,0.4393,0.4421,0.4479,0.4518,0.4561,0.4648,0.4693,0.4727,0.4748,0.4776,0.4763,0.4754,0.4782,0.4783,0.4784,0.4791,0.4793,0.4766,0.4766,0.4766,0,0.4049,0.412,0.4171,0.4217,0.4252,0.4299,0.4339,0.438,0.446,0.4484,0.4491,0.4601,0.4649,0.4713,0.4718,0.4744,0.4757,0.4755,0.4778,0.478,0.4781,0.4789,0.4792,0.4764,0.4764,0.4764,0.4765,0,0.4091,0.4139,0.4162,0.4238,0.4276,0.4318,0.4376,0.4409,0.4439,0.448,0.4538,0.4596,0.466,0.4678,0.4709,0.4747,0.475,0.4766,0.4779,0.4779,0.4787,0.4791,0.4761,0.4762,0.4762,0.4763,0,0,0.4069,0.4172,0.4179,0.4214,0.4291,0.4329,0.4373,0.4435,0.4462,0.4515,0.4554,0.4626,0.4642,0.4681,0.4716,0.4741,0.4753,0.4755,0.4757,0.4753,0.4799,0.4786,0.4789,0.4772,0.4772,0.4773,0.4794,0,0.4085,0.4166,0.4213,0.4274,0.4319,0.4364,0.4403,0.4454,0.4493,0.4537,0.4581,0.4632,0.4648,0.4672,0.4698,0.4746,0.4763,0.4745,0.4809,0.481,0.4791,0.4793,0.478,0.4797,0.4797,0.4798,0.4798,0,0.4115,0.4167,0.4232,0.4303,0.4324,0.4358,0.4418,0.4459,0.4518,0.4545,0.4587,0.4623,0.4671,0.4678,0.4745,0.4732,0.476,0.4788,0.4789,0.4798,0.4805,0.4802,0.4804,0.4806,0.4804,0.4803,0.4803,0,0.4092,0.4179,0.4229,0.4257,0.4341,0.4364,0.44,0.4459,0.4492,0.4545,0.4567,0.4625,0.4657,0.47,0.475,0.4751,0.4813,0.4824,0.4837,0.4835,0.4849,0.4847,0.4855,0.4866,0.4866,0.4866,0.4866,0,0.4106,0.4144,0.422,0.4251,0.4295,0.4349,0.4391,0.4431,0.4482,0.4522,0.4564,0.4601,0.4664,0.4708,0.4747,0.4797,0.4811,0.4835,0.4845,0.4831,0.4828,0.4851,0.4852,0.4866,0.4866,0.4866,0.4866,0,0.4089,0.4141,0.4198,0.4273,0.4292,0.4322,0.4386,0.4417,0.4458,0.4508,0.4523,0.4587,0.4641,0.4695,0.4768,0.4794,0.4843,0.4857,0.4823,0.4829,0.4839,0.4837,0.4862,0.4868,0.4874,0.4874,0.4874,0,0.4094,0.4125,0.4202,0.4231,0.4266,0.4313,0.4347,0.4401,0.4435,0.4504,0.4527,0.4584,0.4632,0.4716,0.477,0.4826,0.4841,0.4846,0.485,0.4835,0.4842,0.484,0.4843,0.4845,0.4844,0.4844,0.4844,0,0.4098,0.4122,0.417,0.4227,0.4266,0.4314,0.4363,0.4384,0.4447,0.4483,0.4539,0.4576,0.465,0.4706,0.4768,0.4805,0.4835,0.4842,0.4848,0.4835,0.4814,0.4826,0.4819,0.4842,0.4842,0.4842,0.4842,0.4842,0.4093,0.4122,0.4181,0.4232,0.4275,0.4319,0.4352,0.4397,0.4444,0.4508,0.4536,0.4592,0.4649,0.4735,0.4772,0.4816,0.4824,0.4833,0.4835,0.4837,0.4834,0.4806,0.4828,0.4828,0.4828,0.4828,0.4828,0,0.41,0.4139,0.4186,0.4253,0.4293,0.4317,0.4372,0.4404,0.4452,0.4503,0.4549,0.4613,0.4667,0.4724,0.4781,0.4806,0.4821,0.4819,0.4818,0.4826,0.4823,0.4812,0.4806,0.4806,0.4806,0.4806,0.4806,0.4806,0.4108,0.4158,0.4189,0.426,0.43,0.4354,0.4383,0.4424,0.4465,0.4533,0.4578,0.4615,0.4668,0.473,0.478,0.4796,0.4815,0.481,0.4829,0.4825,0.4827,0.4828,0.4818,0.4813,0.4813,0.4829,0.4829,0.4829]},{"header":{"parameterUnit":"m.s-1","parameterCategory":1,"la1":30.2991,"la2":30.254,"lo1":-89.0895,"lo2":-89.0444,"dy":0.0017,"dx":0.0017,"nx":28,"ny":28,"refTime":"2024-06-23T21:00:00:Z","depth":0,"parameterNumber":3,"parameterNumberName":"V-component_of_WINDS"},"data":[0,0,0,0,0,0,0,0,0,0,0,0,0,0,0,0,0,0,0,0,0,0,0,0,0,0,0,0,0,0,0,0,0,0,0,0,0,0,0,0,0,0,0,0,0,0,0,0,0,0,0,0,0,0,0,0,0,0,3.7385,3.7384,0,3.7339,3.7338,3.7338,3.735,3.7351,3.7352,3.7353,3.7298,3.7296,3.7294,0,0,0,0,0,0,0,0,0,0,0,0,0,3.7476,3.7474,3.7385,3.7384,3.7384,3.7339,3.7338,3.7338,3.735,3.7351,3.7352,3.7354,3.7299,3.7296,3.7293,0,0,0,0,0,0,0,0,0,0,0,0,0,3.7434,3.7474,3.7385,3.7385,3.7384,3.7339,3.7338,3.7338,3.735,3.7351,3.7353,3.7354,3.73,3.7296,3.7293,3.7243,0,0,3.7282,3.7281,0,0,0,0,0,0,0,0,3.7436,3.743,3.7385,3.7385,3.7384,3.7352,3.7351,3.7306,3.735,3.7363,3.7353,3.7355,3.7314,3.731,3.7298,3.724,3.7238,3.7282,3.728,3.7278,3.7277,0,0,0,0,0,0,0,3.7439,3.7432,3.7366,3.7385,3.7384,3.7385,3.738,3.7342,3.7331,3.7362,3.7363,3.7357,3.7314,3.7301,3.7297,3.7237,3.7282,3.7279,3.7277,3.7275,3.7136,3.7135,0,0,0,0,0,0,3.7444,3.7435,3.7368,3.7365,3.7414,3.7382,3.7377,3.7361,3.7331,3.7328,3.7356,3.7358,3.7307,3.7301,3.7295,3.7234,3.7278,3.7275,3.7273,3.7138,3.7136,3.7134,0,0,0,0,0,0,3.7445,3.7438,3.737,3.74,3.7392,3.7379,3.736,3.7359,3.7346,3.7327,3.7325,3.7345,3.7307,3.73,3.7256,3.7232,3.7273,3.727,3.714,3.7137,3.7135,3.7113,0,0,0,0,0,0,3.7448,3.7438,3.7421,3.74,3.739,3.7334,3.7359,3.7357,3.7341,3.7343,3.7316,3.7313,3.7308,3.7262,3.7253,3.7228,3.7268,3.7142,3.7138,3.7136,3.7115,3.711,3.7105,0,0,0,0,0,3.7451,3.7414,3.742,3.7411,3.7368,3.7333,3.7327,3.7324,3.7339,3.732,3.7308,3.7314,3.7237,3.7257,3.7247,3.7221,3.7143,3.7139,3.7136,3.7118,3.7111,3.7105,0,0,0,0,0,0,3.7429,3.7411,3.7417,3.7373,3.7355,3.7335,3.7311,3.7316,3.7291,3.7294,3.7289,3.7282,3.7238,3.7225,3.7248,3.7171,3.7192,3.7186,3.7181,3.7175,3.717,3.7173,3.7265,0,0,0,0,0,3.742,3.7395,3.738,3.7342,3.7333,3.7324,3.7308,3.7308,3.7287,3.7279,3.7263,3.7241,3.7212,3.7193,3.7165,3.7114,3.7108,3.7091,3.7086,3.7082,3.7077,3.7048,3.7041,3.7122,3.7122,3.7122,0,0,3.7399,3.7386,3.737,3.7337,3.7323,3.7295,3.7317,3.7286,3.7265,3.7273,3.7232,3.722,3.7195,3.7148,3.7126,3.7136,3.7053,3.7077,3.7074,3.7071,3.7044,3.7036,3.7029,3.712,3.712,3.7121,0,0,3.7346,3.7335,3.7303,3.7289,3.7268,3.7262,3.7255,3.7235,3.7228,3.7187,3.7193,3.7166,3.7116,3.7098,3.7082,3.7025,3.7029,3.7016,3.6988,3.6961,3.6954,3.6948,3.6927,3.692,3.7011,3.7011,3.7011,0,3.7322,3.7283,3.7284,3.7254,3.7239,3.7248,3.7214,3.72,3.717,3.7158,3.717,3.7108,3.7092,3.704,3.7027,3.7014,3.7003,3.7018,3.6956,3.695,3.6944,3.6924,3.6916,3.7009,3.7009,3.701,3.701,0,3.7254,3.7227,3.7203,3.7177,3.7159,3.7127,3.7121,3.7102,3.7104,3.7096,3.7054,3.7036,3.7004,3.6992,3.6992,3.694,3.6947,3.6957,3.6978,3.6935,3.6916,3.6908,3.7007,3.7008,3.7008,3.7008,0,0,3.7185,3.7162,3.7153,3.7142,3.712,3.7098,3.7066,3.7038,3.7022,3.7001,3.6973,3.6931,3.6941,3.6923,3.6921,3.6897,3.6852,3.691,3.6909,3.6899,3.6794,3.6786,3.6777,3.6855,3.6854,3.6853,3.6796,0,3.713,3.7077,3.7077,3.7026,3.7001,3.701,3.6982,3.6964,3.6957,3.6932,3.6922,3.6893,3.6908,3.6898,3.6875,3.6862,3.683,3.6867,3.6827,3.6825,3.6832,3.6767,3.6758,3.6705,3.6788,3.6787,3.6786,0,3.7059,3.7039,3.6987,3.697,3.6959,3.6934,3.6909,3.6886,3.6866,3.6862,3.6844,3.6845,3.681,3.6833,3.6784,3.6809,3.6792,3.6784,3.6782,3.6777,3.6802,3.6759,3.6688,3.668,3.6774,3.6775,3.6776,0,3.7013,3.6973,3.6937,3.6927,3.6907,3.6889,3.6879,3.6861,3.6844,3.6821,3.681,3.6783,3.6767,3.6745,3.6738,3.6756,3.6689,3.6711,3.6683,3.6683,3.6668,3.6668,3.6592,3.6659,3.6659,3.6659,3.6659,0,3.6951,3.6919,3.6916,3.6894,3.6857,3.6857,3.682,3.6811,3.6796,3.677,3.6775,3.6751,3.6744,3.6718,3.6712,3.6672,3.6665,3.6659,3.6658,3.6658,3.6659,3.6647,3.665,3.6657,3.6657,3.6658,3.6658,0,3.6893,3.6891,3.6852,3.6837,3.6832,3.6806,3.6792,3.6769,3.6763,3.6731,3.6723,3.6712,3.6681,3.6674,3.6636,3.6632,3.6585,3.6587,3.6592,3.6592,3.6564,3.6567,3.6476,3.6464,3.654,3.6539,3.6538,0,3.6854,3.6829,3.6813,3.6798,3.6788,3.6763,3.6747,3.6746,3.6729,3.6705,3.6685,3.6656,3.6632,3.6582,3.6569,3.6541,3.6542,3.6512,3.6537,3.6539,3.6541,3.6542,3.6539,3.6507,3.6506,3.6505,3.6505,0,3.6783,3.6784,3.6762,3.674,3.6722,3.6704,3.6686,3.6673,3.6669,3.6649,3.662,3.6602,3.6565,3.6535,3.6507,3.6494,3.6498,3.6498,3.6489,3.6489,3.6493,3.649,3.6578,3.6499,3.65,3.65,3.6501,3.6501,3.6732,3.6712,3.6697,3.6673,3.6661,3.6645,3.6623,3.6616,3.6592,3.6564,3.6565,3.6532,3.6512,3.6475,3.6461,3.6434,3.6442,3.6431,3.6427,3.6424,3.6422,3.6498,3.6428,3.6429,3.6429,3.6429,3.6429,0,3.6662,3.6654,3.6632,3.6609,3.659,3.6599,3.6581,3.6563,3.6535,3.6518,3.6496,3.6462,3.6433,3.6419,3.6391,3.6372,3.6373,3.6364,3.6365,3.6362,3.6416,3.6426,3.6364,3.6364,3.6364,3.6364,3.6364,3.6364,3.6623,3.6588,3.6587,3.6546,3.6537,3.6508,3.6496,3.6481,3.6468,3.643,3.6408,3.64,3.6384,3.6354,3.6328,3.6325,3.6313,3.6303,3.63,3.6351,3.6358,3.6364,3.6373,3.6301,3.6301,3.6248,3.6248,3.6247]}]]